Regional Weather Roundup
Issued by NWS

Home | Current Version | Previous Version | Graphics & Text | Print | Product List | Glossary On
Versions: 1 2 3 4 5 6 7 8 9 10 11 12 13 14 15 16 17 18 19 20 21 22 23 24 25 26 27 28 29 30 31 32 33 34 35 36 37 38 39 40 41 42 43 44 45 46 47 48 49 50
000
ASUS45 KCYS 261310
RWRWY

WYOMING REGIONAL WEATHER ROUNDUP
NATIONAL WEATHER SERVICE CHEYENNE WY
700 AM MDT TUE AUG 26 2014

NOTE:  "FAIR" INDICATES FEW OR NO CLOUDS BELOW 12,000 FEET
WITH NO SIGNIFICANT WEATHER AND/OR OBSTRUCTIONS TO VISIBILITY.

WYZ001-261400-
YELLOWSTONE NATIONAL PARK

CITY           SKY/WX    TMP DP  RH WIND       PRES   REMARKS
LK YELLOWSTONE   N/A     38  37  97 CALM      30.33R
W YELLOWSTONE  NOT AVBL

$$
WYZ002>013-054>058-071-098>099-261400-
NORTHERN WYOMING

CITY           SKY/WX    TMP DP  RH WIND       PRES   REMARKS
JACKSON        MOCLDY    43  43 100 CALM      30.26R
CODY           PTCLDY    48  46  93 S6        30.18R
GREYBULL       CLEAR     49  48  97 CALM      30.13R
WORLAND        CLEAR     49  47  93 CALM      30.15R
SHERIDAN       CLEAR     46  44  93 W3        30.14R
BUFFALO        CLEAR     48  44  86 NW8       30.15R
GILLETTE       MOCLDY    49  47  93 CALM      30.13R
HULETT         FAIR      46  45  93 MISG      30.16
NEWCASTLE      PTSUNNY   59  50  72 SE10G16   30.15

$$
WYZ014>020-022>026-101>103-261400-
CENTRAL WYOMING

CITY           SKY/WX    TMP DP  RH WIND       PRES   REMARKS
BIG PINEY      CLOUDY    46  45  96 N5        30.29S
PINEDALE       CLOUDY    45  45 100 E6        30.29F
DUBOIS         FAIR      43  37  81 NW14      30.24F
LANDER         CLOUDY    50  44  80 SW5       30.19R
RIVERTON       PTCLDY    48  45  89 NW10      30.19R
CASPER         MOCLDY    47  46  97 SW5       30.18R
DOUGLAS        CLOUDY    54  51  90 SE7       30.17R

$$
WYZ021-027>030-104>119-261400-
SOUTHERN WYOMING

CITY           SKY/WX    TMP DP  RH WIND       PRES   REMARKS
EVANSTON       MOCLDY    47  45  93 E8        30.30F
KEMMERER       LGT RAIN  46  45  93 W8        30.32R
FORT BRIDGER     N/A     49  47  95 SW7       30.35R
ROCK SPRINGS   MOCLDY    49  45  86 NW10      30.29R
DIXON          FAIR      51  46  82 E13       30.28R
RAWLINS        MOCLDY    50  47  89 E5        30.27R
SARATOGA       FAIR      50  45  81 MISG      30.29R
LARAMIE        MOCLDY    47  45  93 SW8       30.30R
CHEYENNE       CLOUDY    54  52  93 SW5       30.27R
TORRINGTON     MOCLDY    54  54 100 SE3       30.17R
PINE BLUFFS    FAIR      54  54 100 SW6       30.23S

$$


USA.gov is the U.S. government's official web portal to all federal, state and local government web resources and services.